Regional Weather Roundup
Issued by NWS Sterling, VA

Home | Current Version | Previous Version | Text Only | Print | Product List | Glossary On
Versions: 1 2 3 4 5 6 7 8 9 10 11 12 13 14 15 16 17 18 19 20 21 22 23 24 25 26 27 28 29 30 31 32 33 34 35 36 37 38 39 40 41 42 43 44 45 46 47 48 49 50
000
ASUS41 KLWX 231810
RWRLWX

REGIONAL WEATHER ROUNDUP
NATIONAL WEATHER SERVICE BALTIMORE MD/WASHINGTON DC
200 PM EDT WED JUL 23 2014

Note: "FAIR" indicates few or no clouds below 12,000 feet
with no significant weather and/or obstructions to visibility.
 TC=TEMPERATURE CELSIUS

 * =Non NWS site. Station does not report precipitation (e.g. rain,
    snow, etc.), thunder, or fog.

DCZ001-MDZ009-015-VAZ040>042-051-053>054-231900-
WASHINGTON METRO
  /KDAA//-FT BELVOIR

CITY           SKY/WX    TMP DP  RH WIND       PRES   REMARKS
WASHINGTON NAT MOSUNNY   91  73  55 S13       29.90F HX  99
DULLES         MOSUNNY   91  72  53 S10G18    29.91F HX  98
ANDREWS AFB    SUNNY     90  73  57 S10       29.91F HX  98
QUANTICO       MOSUNNY   88  75  65 S12       29.92F HX  97
COLLEGE PARK*  PTSUNNY   91  70  49 S5        29.89F HX  97
LEESBURG*      SUNNY     93  73  52 SW9       29.91F HX 102
GAITHERSBURG*  PTSUNNY   90  73  58 CALM      29.94F HX  98

$$

MDZ006>007-011-014-231900-
BALTIMORE METRO

CITY           SKY/WX    TMP DP  RH WIND       PRES   REMARKS
BWI AIRPORT    MOSUNNY   89  70  53 SW9       29.89F HX  94
MD SCIENCE CTR   N/A     92  68  45 MISG      29.88F HX  96
MARTIN STATE   MOSUNNY   88  81  79 SE12      29.90F HX 105
ANNAPOLIS      SUNNY     85  76  74 SE15      29.90F HX  94
FORT MEADE*    SUNNY     90  70  51 S7        29.92F HX  95

$$

MDZ012-015-019>023-231900-
MARYLAND EASTERN SHORE

CITY           SKY/WX    TMP DP  RH WIND       PRES   REMARKS
OCEAN CITY     SUNNY     83  75  77 S8        29.95F HX  90
SALISBURY      NOT AVBL
BAY BRIDGE AP*   N/A     88  72  58 S10       29.91F HX  94
CAMBRIDGE*     SUNNY     90  70  51 SW10      29.92F HX  95
EASTON*        MOSUNNY   90  73  58 SW12      29.96F HX  98

$$

MDZ017>025-231900-
SOUTHERN MARYLAND

CITY           SKY/WX    TMP DP  RH WIND       PRES   REMARKS
PATUXENT RIVER MOSUNNY   89  72  56 VRB6      29.92F HX  96
ST INIGOES     SUNNY     87  73  62 S10       29.92F HX  94
LEONARDTOWN*   SUNNY     88  70  55 SW10      29.94F HX  92

$$

MDZ003>005-231900-
NORTH CENTRAL MARYLAND

CITY           SKY/WX    TMP DP  RH WIND       PRES   REMARKS
FREDERICK*     NOT AVBL
HAGERSTOWN APT SUNNY     90  68  48 SW8G18    29.89F HX  94
WESTMINSTER*   SUNNY     91  79  66 S10       29.91F HX 107

$$

MDZ501>502-231900-
WESTERN MARYLAND

CITY           SKY/WX    TMP DP  RH WIND       PRES   REMARKS
OAKLAND*       SUNNY     79  61  53 SW10      30.05R
CUMBERLAND*    SUNNY     95  63  34 SW9       29.93F HX  96

$$

VAZ025>031-231900-
SHENANDOAH VALLEY

CITY           SKY/WX    TMP DP  RH WIND       PRES   REMARKS
WINCHESTER*    MOSUNNY   91  68  46 SW9       29.91F HX  95
STAUNTON*      PTSUNNY   88  69  53 W12       30.00S THUNDER HX  91

$$

WVZ021-048>050-054>055-231900-
EASTERN WEST VIRGINIA PANHANDLE

CITY           SKY/WX    TMP DP  RH WIND       PRES   REMARKS
MARTINSBURG    MOSUNNY   90  68  48 SW10      29.89F HX  94
PETERSBURG*    MOSUNNY   88  59  37 W8        29.93F

$$

VAZ036>039-050-231900-
CENTRAL FOOTHILLS

CITY           SKY/WX    TMP DP  RH WIND       PRES   REMARKS
CHARLOTTESVILL MOSUNNY   91  68  46 SW14      29.94F HX  95
ORANGE*        SUNNY     91  63  38 S7        29.94F HX  92

$$

VAZ055>057-231900-
NORTH AND CENTRAL PIEDMONT

CITY           SKY/WX    TMP DP  RH WIND       PRES   REMARKS
FREDERICKSBRG* MOSUNNY   93  69  46 CALM      29.91F HX  98
STAFFORD*      MOSUNNY   92  71  50 S8        29.96F HX  98

$$

NCZ024-NYZ072-PAZ021-071-VAZ022-071-231900-
OTHER REGIONAL OBSERVATIONS

CITY           SKY/WX    TMP DP  RH WIND       PRES   REMARKS
NEW YORK CITY  PTSUNNY   85  72  65 SW7       29.90F HX  91
PHILADELPHIA   PTSUNNY   89  70  53 SW12      29.89F HX  94
PITTSBURGH     CLOUDY    83  67  58 W13       29.97R
ROANOKE        PTSUNNY   92  66  42 W10       30.01F HX  94
RICHMOND       MOSUNNY   94  70  45 S10       29.94F HX 100
RALEIGH        MOSUNNY   90  72  55 W7        30.01F HX  97

$$

ANZ530>537-231900-
MARINE OBSERVATIONS

STATION/POSITION TIME  TEMP    WIND        PRES
                       AIR SEA DIR/SP/G
                 (UTC) (F)     (DEG/KT/KT) (MB)
THOMAS PT LIGHT  1800   81 81  170/ 15/ 16 1013.1F
BALT KEY BRIDGE  1800   86     130/  7/  8 1011.9F
COVE POINT       1800   80     180/ 17/ 18 1013.3F
LEWISETTA        1800   87 83  210/  7/ 10 1013.3F
SOLOMONS ISLAND  1800      81                N/A
PINEY POINT      1800          220/  5/  6   N/A

$$



USA.gov is the U.S. government's official web portal to all federal, state and local government web resources and services.